Location: Ottawa
(45.4170°N, 75.7000°W)
Time: 11:20:23
(UTC-04:00)

Daily predictions for brighter satellites

Satellite Brightness Start Highest point End
(mag) Time Altitude Azimuth Time Altitude Azimuth Time Altitude Azimuth
Cosmos 1464 Rocket 4.4 21:10:11 10° NNW 21:16:17 68° W 21:22:24 10° S
ARGOS 4.4 21:15:02 10° ESE 21:19:35 28° ENE 21:24:09 10° N
deb Chang Zheng 4 3.6 21:16:44 10° NNE 21:21:10 81° ESE 21:25:32 10° SSW
H-2A R/B 2.4 21:21:28 10° S 21:25:44 70° WSW 21:30:08 10° NNW
Cosmos 2369 Rocket 2.5 21:20:54 10° NNW 21:26:30 54° ENE 21:31:59 10° SE
Cosmos 1992 Rocket 4.1 21:24:32 10° NNW 21:29:46 69° ENE 21:34:57 10° SSE
Cosmos 1666 4.1 21:26:43 10° NNW 21:30:23 40° W 21:34:03 10° SSW
MetOp-B 4.4 21:25:38 10° SSE 21:30:50 55° ENE 21:36:05 10° N
Cosmos 2228 4.3 21:27:20 10° NNW 21:31:32 43° W 21:35:41 10° SSW
Meteor 2-12 Rocket 4.5 21:26:22 10° N 21:32:29 71° E 21:38:30 10° SSE
Cosmos 1626 Rocket 3.8 21:29:24 10° SSW 21:33:49 76° W 21:38:14 10° N
Cosmos 1634 Rocket 4.3 21:29:18 10° N 21:35:19 51° ENE 21:41:19 10° SSE
SL-8 R/B 4.3 21:30:40 10° WNW 21:35:27 60° N 21:40:15 10° E
Lacrosse 4 Rocket 2.3 21:35:07 10° SSE 21:38:31 26° ESE 21:41:58 10° NE
CZ-2C R/B 3.2 21:37:08 10° SW 21:38:44 17° W 21:40:21 10° NW
SL-16 R/B 4.1 21:33:42 10° WSW 21:38:50 35° NW 21:44:01 10° NNE
USA 245 4.5 21:36:16 10° SE 21:41:49 50° ENE 21:46:28 10° N
SeaSat 1 2.5 21:38:41 10° SSE 21:43:36 80° ENE 21:48:33 10° NNW
Nimbus 7 Rocket 4.5 21:43:07 10° NNE 21:49:07 88° WNW 21:55:01 10° SSW
SL-08 RB Rocket 4.5 21:47:17 13° SE 21:50:57 37° ENE 21:55:07 10° N
Cosmos 1238 4.3 21:50:09 10° SSW 21:53:12 76° W 21:56:16 10° N
Cosmos 1953 Rocket 4.0 21:49:27 10° SSE 21:53:34 43° E 21:57:47 10° NNE
CZ-4B R/B 3.7 21:49:22 10° NNE 21:54:24 56° ESE 21:59:31 10° S
Cosmos 1190 Rocket 4.2 21:50:40 10° S 21:55:49 54° ESE 22:01:01 10° NNE
Cosmos 2263 4.3 21:51:40 10° NNW 21:57:18 68° ENE 22:01:57 15° SE
YAOGAN 6 2.7 21:54:35 14° SSE 21:57:43 69° ENE 22:01:28 10° N
Cosmos 2346 Rocket 4.5 21:52:26 10° S 21:58:32 66° E 22:04:37 10° NNE
Cosmos-2242 4.4 21:54:56 10° NNE 21:58:40 26° ENE 22:01:22 15° ESE
H-2A R/B 3.2 21:55:22 13° ESE 21:59:01 29° ENE 22:03:22 10° N
Atlas Centaur 2 3.9 21:55:36 10° SW 22:01:33 26° S 22:06:34 15° SE
Cosmos 1515 3.9 22:00:08 10° SSW 22:03:59 74° W 22:07:51 10° N
BREEZE-M DEB (TANK) 1.7 22:04:05 10° WSW 22:07:25 71° SSE 22:09:27 10° ENE
SPOT 1/Viking Rocket 3.5 22:03:18 13° SSE 22:07:51 83° ENE 22:13:02 10° NNW
ATLAS 3B R/B 3.0 22:00:25 10° SSW 22:08:00 64° ESE 22:15:24 10° NE
CZ-4C R/B 4.0 22:05:22 18° SE 22:08:12 44° ENE 22:12:01 10° N
ISS -3.1 22:05:04 10° WSW 22:08:19 74° NNW 22:11:36 10° ENE
Cosmos 1066 Rocket 4.2 22:03:45 10° S 22:09:27 79° E 22:15:18 10° NNE
Meteor 1-22 Rocket 4.2 22:06:47 10° N 22:12:24 82° E 22:17:17 15° SSE
Cosmos 676 Rocket 4.4 22:07:50 10° S 22:12:54 46° ESE 22:18:00 10° NNE
CZ-4 R/B 4.0 22:11:39 10° NNE 22:16:38 63° ESE 22:21:17 12° S
Landsat 7 4.2 22:15:11 19° SE 22:18:22 52° ENE 22:23:00 10° N
PSLV R/B 3.9 22:17:31 10° WSW 22:20:53 40° S 22:22:23 26° SE
Cosmos 1953 3.2 22:18:27 10° N 22:22:07 34° ENE 22:23:57 22° ESE
Cosmos 1943 Rocket 2.4 22:18:17 10° NNW 22:23:47 62° ENE 22:27:31 21° SE
Lacrosse 5 rocket 4.2 22:21:07 10° NW 22:23:55 18° N 22:26:49 10° NE
USA 234 3.3 22:19:11 17° SE 22:24:23 81° SW 22:31:00 10° NW
BREEZE M DEB (TANK) 2.5 22:24:17 10° W 22:25:59 23° SSW 22:25:59 23° SSW
Cosmos 1758 Rocket 3.5 22:23:41 15° S 22:27:19 80° E 22:31:42 10° N
SPOT 5 4.1 22:23:41 10° SSW 22:27:35 31° W 22:31:28 10° NNW
Cosmos 1943 3.4 22:23:36 10° SSW 22:29:16 74° WNW 22:35:00 10° NNE
CARTOSAT-1 4.0 22:28:08 24° SE 22:30:29 48° ENE 22:34:39 10° N
Terra 2.2 22:31:28 23° SE 22:34:11 52° ENE 22:38:48 10° N
Cosmos 1346 Rocket 3.2 22:34:25 11° SSW 22:38:10 60° WNW 22:42:05 10° N
Lacrosse 5 4.2 22:36:56 10° NW 22:40:54 22° N 22:44:52 10° ENE
COSMOS 2455 4.0 22:35:14 10° WSW 22:40:58 45° NW 22:46:45 10° NNE
DELTA 2 DEB (DPAF) 4.2 22:38:41 23° S 22:41:26 80° WSW 22:45:57 10° NNW
Cosmos 407 Rocket 3.6 22:36:23 10° SSW 22:41:39 78° WNW 22:46:54 10° NNE
Cosmos 1842 3.2 22:44:54 28° S 22:46:54 77° E 22:50:49 10° NNE
SL-27 R/B 2.4 22:46:07 41° SSE 22:46:55 53° ESE 22:50:12 10° NNE
COSMOS 2487 4.4 22:49:12 17° E 22:49:12 17° E 22:51:04 10° ENE
USA 238 DEB 3.9 22:43:33 10° SSW 22:50:22 52° ESE 22:57:10 10° NE
USA 238 3.9 22:43:40 10° SSW 22:50:28 52° ESE 22:57:16 10° NE
Meteor 1-21 4.4 22:47:53 13° SSW 22:53:10 79° W 22:59:02 10° N
Cosmos 1842 Rocket 3.9 22:51:40 10° N 22:55:58 51° ENE 22:57:35 33° SE
ARGOS 4.0 22:55:38 17° SSW 22:59:35 45° W 23:04:49 10° NNW
Cosmos 1954 Rocket 4.0 22:57:35 14° SSW 23:02:08 88° WNW 23:07:28 10° NNE
Cosmos 1092 Rocket 4.3 23:02:30 28° SSE 23:05:36 51° E 23:11:38 10° NNE
Cosmos 2208 Rocket 3.9 23:00:32 10° NNW 23:05:45 79° ENE 23:08:05 33° SSE
IGS 5A 3.4 23:05:31 37° S 23:07:06 82° WSW 23:11:18 10° NNW
Cosmos 1758 3.5 23:05:17 10° NNW 23:09:23 72° W 23:10:56 37° S
Cosmos 2369 Rocket 3.9 23:05:39 10° NW 23:10:07 24° WSW 23:13:56 12° SSW
CZ-4B R/B 4.2 23:10:39 10° E 23:11:47 11° ENE 23:12:56 10° NE
Meteor 2-5 Rocket 4.4 23:11:50 30° SE 23:13:58 41° E 23:19:20 10° NNE
Cosmos 2084 3.7 23:10:28 10° NW 23:14:30 55° SW 23:15:41 40° S
Nadezhda 4 Rocket 4.0 23:11:19 26° S 23:15:05 79° E 23:21:26 10° N
Lacrosse 4 Rocket 3.1 23:13:28 10° WSW 23:17:08 32° NW 23:20:53 10° NNE
SL-8 R/B 3.6 23:13:22 10° WNW 23:18:13 81° SSW 23:20:17 35° ESE
SL-23 DEB 3.8 23:16:17 10° WSW 23:21:37 87° SSE 23:25:04 10° ENE
H-2A R/B 4.5 23:20:38 10° ENE 23:22:11 14° E 23:22:11 14° E
Cosmos 1741 Rocket 4.0 23:21:14 32° S 23:23:41 72° ESE 23:29:00 10° NNE
NOSS 3-2 (C) 4.3 23:24:06 28° SE 23:24:57 29° ESE 23:30:26 10° NE
Geosat 4.2 23:21:51 10° NNE 23:26:52 69° WNW 23:31:13 14° SW
Cosmos 2221 3.1 23:29:27 10° N 23:33:34 43° ENE 23:34:25 38° ESE
Cosmos 1340 2.7 23:34:32 59° ESE 23:34:46 60° E 23:38:32 10° NNE
Cosmos 1470 2.6 23:32:06 10° N 23:36:00 82° E 23:36:33 64° SSE
Cosmos-2242 4.5 23:32:22 10° NNW 23:36:15 30° W 23:38:15 21° SW
Cosmos 1655 Rocket 4.4 23:35:25 33° SE 23:37:44 48° E 23:43:41 10° NNE
H-2A R/B 3.0 23:36:00 25° SSW 23:38:18 38° W 23:43:04 10° NNW
Cosmos 1805 4.4 23:34:41 10° NNW 23:38:21 37° W 23:39:29 30° SW
Cosmos 1850 Rocket 4.0 23:37:40 29° SSW 23:40:26 80° WNW 23:45:41 10° NNE
Cosmos 2278 4.5 23:38:13 10° NNW 23:43:39 44° ENE 23:46:20 27° ESE
ISS -1.1 23:42:14 10° WNW 23:45:07 28° N 23:48:01 10° NE
Cosmos 1544 3.4 23:41:44 10° NNW 23:45:27 56° W 23:45:56 51° SW
CZ-4C R/B 2.5 23:45:27 39° SE 23:46:14 42° ESE 23:51:46 10° NE
COSMOS 2406 3.5 23:45:47 18° SW 23:50:05 65° WNW 23:55:49 10° NNE
Cosmos 405 Rocket 4.3 23:50:37 23° E 23:50:37 23° E 23:53:15 10° NE
Atlas Centaur 2 4.2 23:44:23 10° WSW 23:49:13 22° SSW 23:49:13 22° SSW
Cosmos 1607 3.9 23:45:43 19° SW 23:50:25 88° NW 23:56:41 10° NE
Cosmos 1140 Rocket 4.2 23:47:56 18° SW 23:51:42 51° WNW 23:56:50 10° NNE
